Vorticity
8 3 5 16 5 6 11 14 19 7 3 13 17 21 21 -9 3 5 9 8 32 5 8 10 15 13 12 10 16 24 7 9 11 -5 5 7 20 8 4 16 13 7 8 10 12 9 12 -6 11 15 5 9 11 13
5 17 4 13 13 12 8 14 16 4 14 6 7 12 13 -4 9 11 15 9 -1 27 15 4 8 4 10 12 14 22 -7 22 20 1 5 2 9 16 12 5 13 5 4 10 3 15 1 9 16 13 11 10 10 12
21 11 7 11 7 11 5 24 11 6 -0 5 9 12 -11 14 13 11 14 1 11 25 6 3 5 7 12 14 12 17 11 19 13 7 7 6 -4 4 9 11 7 14 6 7 11 12 8 15 11 6 5 5 4 4
13 12 -1 9 10 1 9 13 24 17 2 7 -13 2 -3 17 12 10 12 12 -5 17 18 4 3 10 11 8 10 12 15 16 15 10 6 7 1 9 13 8 4 0 6 8 2 6 12 7 7 6 6 7 9 10
-2 28 2 6 8 12 16 9 9 9 -1 9 4 -13 11 13 12 14 11 14 7 -23 27 7 8 9 9 6 5 8 10 11 10 10 11 7 10 11 10 8 6 8 5 7 5 10 12 5 3 3 3 6 8 8
31 -7 7 11 15 15 22 16 27 41 48 33 40 10 12 11 11 11 11 10 20 2 22 -5 9 7 7 9 10 9 8 9 9 9 11 13 12 7 13 12 18 16 16 17 7 4 7 7 5 4 5 8 9 9
20 22 6 13 10 -2 12 17 6 10 2 17 12 9 10 10 10 13 6 5 3 21 -4 12 2 7 5 7 11 12 14 13 10 11 9 10 10 7 9 7 11 12 22 14 7 8 11 7 4 5 8 9 10 11
30 -7 9 18 13 8 9 -7 10 -1 2 0 14 12 13 10 12 10 20 14 5 11 2 9 21 13 6 9 9 7 13 11 12 9 14 10 10 9 12 13 22 25 10 8 9 12 8 5 6 10 11 14 13 10
20 7 6 10 12 8 13 8 5 13 21 -7 12 7 11 13 3 8 13 1 5 -2 3 15 13 24 16 0 3 7 10 12 14 10 10 8 11 13 9 8 11 11 11 10 10 7 5 8 9 13 13 12 12 11
35 2 9 10 4 16 18 27 28 41 16 4 -2 17 11 10 9 7 5 1 6 5 5 12 11 11 24 6 8 5 14 6 14 14 10 9 13 8 11 10 7 8 8 7 6 8 8 10 13 12 12 11 12 15
7 9 6 1 7 19 18 20 19 13 29 15 8 -8 -7 -1 1 -2 3 14 7 18 26 12 11 12 17 9 8 2 14 13 11 17 1 11 18 14 13 15 15 13 11 9 9 8 11 11 12 12 14 16 12 11
1 8 6 10 16 10 10 4 2 4 11 14 16 28 20 3 12 10 27 4 20 8 30 12 9 11 23 2 3 11 6 8 9 14 5 13 19 14 5 6 8 10 10 11 11 10 11 12 16 15 12 9 10 9
1 10 14 6 9 2 -1 4 11 12 15 17 27 -21 17 5 13 13 18 21 8 22 16 12 11 11 18 -6 13 5 9 11 11 8 11 17 8 5 9 11 11 10 11 8 9 11 15 15 13 10 8 7 8 9
9 15 11 11 3 2 4 7 5 8 20 -2 -11 12 5 14 22 20 9 17 8 17 21 15 11 0 8 -4 14 6 15 6 6 7 13 6 13 8 12 6 11 10 9 8 14 17 12 11 8 7 7 7 5 6
7 8 13 9 8 0 4 5 5 8 -3 -12 7 12 9 27 18 21 16 13 16 21 21 11 5 9 -1 1 5 9 13 11 14 18 17 18 14 15 15 10 8 11 9 15 16 11 10 8 6 6 6 4 6 8
9 7 7 2 8 4 2 3 4 4 1 -4 15 22 8 16 13 15 10 8 25 21 19 -14 -7 15 16 2 18 7 8 18 21 8 10 8 6 8 13 12 10 8 14 18 12 10 9 6 7 7 4 5 7 8
38 14 12 24 24 6 2 7 7 -3 4 10 13 19 8 11 8 11 15 2 15 25 6 -15 5 14 17 9 5 18 -2 0 5 2 0 8 13 9 8 7 7 13 19 13 10 10 7 6 9 5 5 6 7 7
42 -3 8 -0 2 5 6 7 1 4 25 13 7 12 14 4 6 11 15 20 10 15 -18 13 4 4 9 8 26 43 37 23 -1 12 9 10 19 18 12 9 10 17 16 10 10 10 6 8 7 6 6 7 7 7
-6 36 1 2 3 3 -1 5 -12 15 10 1 4 4 12 12 2 12 16 21 21 11 6 -10 8 22 -2 -9 -8 1 3 9 11 1 2 8 7 7 12 6 15 20 13 9 9 9 6 7 6 6 7 8 8 8
17 5 -2 21 -2 5 -17 23 -1 -4 10 7 6 7 12 2 6 7 13 17 19 17 22 -7 -17 -14 25 20 12 18 27 16 1 -2 1 11 12 12 9 7 10 18 11 8 10 9 9 8 7 7 7 8 9 8
15 10 22 11 23 18 2 18 4 17 7 6 10 12 20 20 -1 15 10 9 6 12 22 22 30 6 -12 -22 -16 -16 -3 12 20 15 13 10 7 4 8 15 14 18 12 9 9 7 8 9 7 8 8 9 9 9
13 13 13 19 14 1 15 10 3 18 4 5 8 17 9 25 11 15 -4 5 -2 12 12 17 13 17 25 14 15 15 -0 -7 5 5 -6 0 10 5 8 20 19 17 12 9 8 8 7 8 10 8 8 7 8 9
21 -1 1 10 -6 4 18 7 4 -0 -3 5 8 20 18 21 14 9 -0 12 6 8 12 12 13 15 10 6 11 14 12 9 10 12 14 17 13 10 9 18 20 15 9 8 7 7 8 9 9 8 8 8 8 9
12 17 1 -7 15 8 16 11 11 8 10 9 7 17 19 23 18 17 1 6 11 6 15 15 12 9 9 12 11 9 9 11 12 11 14 13 11 10 6 15 17 12 9 6 8 9 9 11 11 10 10 10 9 10
-1 -3 2 14 10 9 8 11 9 12 11 14 18 10 19 13 15 10 8 7 16 20 15 11 11 9 9 10 10 11 12 11 11 14 15 13 11 8 6 10 15 15 11 10 9 10 10 8 8 9 8 9 10 10
3 24 9 21 9 7 6 15 15 25 22 15 10 12 21 13 7 6 21 29 19 15 14 14 15 15 13 16 14 13 13 14 11 8 10 11 11 12 10 8 12 17 14 10 7 7 7 8 8 9 10 10 9 10
5 21 11 19 10 18 4 18 17 13 16 18 20 12 10 11 16 15 20 19 13 17 20 20 20 18 16 16 17 17 14 12 12 11 10 10 11 11 13 11 8 9 12 15 16 14 12 10 10 10 11 11 12 12
13 10 9 16 11 8 7 14 19 22 25 19 15 19 9 6 20 19 18 9 6 8 9 11 10 11 14 19 20 15 13 14 13 12 11 10 9 9 10 11 11 11 13 13 12 11 11 12 12 11 10 10 10 11
14 6 7 8 3 -1 -0 9 17 12 -6 9 4 14 4 5 3 -3 0 3 5 6 8 9 11 10 8 9 10 11 16 21 20 17 15 15 17 16 16 15 15 15 14 16 15 15 15 15 14 15 14 14 14 14
6 5 3 5 6 8 12 11 6 4 3 0 4 5 10 13 10 9 9 9 9 9 9 11 14 13 12 11 11 13 11 12 14 17 16 14 12 13 13 12 12 12 13 14 14 14 14 14 14 14 16 15 13 13
9 9 7 9 12 9 7 7 9 13 12 11 11 12 12 12 10 6 4 10 12 13 12 11 11 12 11 11 11 12 12 12 12 12 13 13 13 13 13 13 13 13 13 14 14 14 15 14 14 15 15 15 15 15
20 19 18 13 9 9 11 15 17 16 14 16 18 21 17 12 10 10 12 15 14 15 15 14 14 14 13 13 12 13 12 12 12 11 11 11 11 11 11 12 13 14 14 13 13 13 13 13 14 16 17 16 14 13
11 23 22 18 17 19 27 24 20 21 24 22 18 18 16 12 8 7 6 7 6 7 7 11 12 13 13 13 13 13 12 12 12 11 12 13 14 15 16 18 18 18 20 22 22 20 18 16 18 18 16 14 13 13
Height
2881 2887 2892 2897 2901 2905 2908 2911 2913 2919 2924 2929 2933 2937 2942 2948 2954 2958 2964 2967 2972 2976 2981 2987 2992 2996 2999 3002 3005 3008 3013 3015 3019 3022 3026 3025 3028 3030 3034 3035 3037 3040 3042 3042 3042 3041 3042 3040 3040 3041 3038 3035 3034 3032
2877 2883 2890 2895 2899 2903 2907 2911 2915 2919 2924 2929 2935 2939 2944 2950 2955 2960 2964 2969 2973 2977 2982 2988 2991 2995 2997 3000 3003 3005 3009 3011 3014 3018 3020 3022 3024 3027 3031 3034 3034 3038 3038 3040 3040 3038 3037 3037 3036 3035 3034 3033 3032 3030
2874 2882 2888 2893 2897 2902 2907 2910 2915 2920 2926 2932 2937 2942 2947 2952 2956 2960 2965 2970 2974 2978 2983 2988 2991 2995 2997 3000 3002 3005 3008 3010 3012 3015 3017 3019 3023 3025 3028 3032 3032 3032 3033 3034 3035 3035 3035 3035 3034 3034 3033 3032 3030 3029
2873 2880 2886 2892 2896 2901 2906 2911 2915 2919 2925 2931 2937 2942 2948 2951 2956 2960 2966 2971 2975 2979 2982 2988 2991 2994 2997 3000 3002 3005 3007 3009 3012 3014 3016 3017 3021 3023 3026 3028 3030 3030 3030 3031 3031 3031 3032 3033 3033 3032 3032 3030 3028 3027
2871 2877 2885 2891 2896 2901 2906 2910 2915 2920 2926 2931 2936 2943 2948 2952 2957 2962 2966 2971 2975 2981 2982 2988 2992 2995 2997 3000 3002 3004 3007 3009 3011 3013 3014 3016 3018 3021 3023 3025 3025 3026 3027 3029 3029 3029 3029 3030 3031 3030 3030 3028 3026 3025
2870 2878 2885 2890 2896 2901 2906 2911 2915 2918 2924 2930 2936 2943 2948 2953 2958 2962 2967 2972 2975 2979 2983 2987 2993 2994 2997 3000 3002 3004 3006 3008 3010 3011 3013 3014 3017 3020 3021 3023 3022 3022 3023 3024 3026 3027 3028 3028 3028 3027 3026 3025 3023 3022
2870 2878 2885 2890 2896 2902 2906 2911 2916 2920 2926 2932 2938 2944 2949 2954 2959 2964 2968 2971 2976 2979 2983 2987 2991 2994 2996 2999 3002 3004 3005 3007 3009 3010 3012 3014 3016 3017 3018 3019 3019 3019 3020 3022 3024 3026 3026 3026 3025 3024 3023 3021 3020 3019
2871 2879 2886 2892 2897 2903 2908 2913 2918 2923 2929 2934 2940 2945 2950 2955 2961 2965 2968 2972 2976 2981 2984 2986 2990 2995 2997 2999 3001 3003 3005 3006 3008 3009 3011 3013 3014 3015 3015 3016 3016 3017 3019 3021 3022 3023 3023 3023 3022 3021 3020 3019 3017 3016
2874 2881 2888 2895 2900 2904 2909 2913 2918 2923 2929 2935 2940 2946 2951 2956 2961 2965 2969 2973 2977 2983 2983 2985 2988 2993 2995 2998 3001 3003 3004 3006 3007 3008 3010 3013 3012 3012 3014 3014 3015 3017 3018 3019 3019 3020 3020 3020 3019 3019 3017 3016 3015 3013
2875 2883 2890 2897 2901 2906 2910 2914 2918 2921 2928 2936 2942 2948 2952 2957 2962 2967 2971 2975 2978 2979 2981 2984 2986 2989 2994 2997 3000 3004 3004 3005 3007 3009 3009 3009 3010 3011 3012 3013 3014 3015 3016 3017 3017 3018 3018 3017 3017 3016 3015 3014 3013 3011
2877 2886 2893 2898 2904 2909 2913 2916 2921 2925 2929 2935 2942 2947 2953 2957 2963 2967 2971 2974 2976 2977 2980 2983 2985 2988 2992 2996 2999 3002 3002 3004 3006 3008 3008 3007 3008 3009 3010 3011 3012 3013 3014 3014 3015 3015 3015 3015 3014 3014 3013 3012 3011 3010
2881 2888 2895 2902 2908 2913 2918 2922 2926 2930 2935 2940 2945 2950 2955 2961 2965 2968 2969 2972 2972 2974 2976 2981 2984 2987 2991 2996 2999 3001 3002 3004 3005 3005 3006 3005 3006 3007 3009 3009 3010 3011 3011 3012 3012 3013 3013 3012 3012 3012 3011 3011 3010 3008
2885 2892 2898 2905 2912 2918 2923 2927 2931 2936 2940 2944 2949 2953 2958 2961 2962 2963 2964 2967 2968 2970 2974 2977 2982 2987 2992 2995 2997 3000 3001 3003 3003 3004 3003 3003 3004 3005 3006 3007 3008 3008 3009 3009 3010 3010 3010 3010 3011 3010 3010 3010 3009 3007
2889 2895 2902 2909 2915 2920 2926 2930 2934 2938 2943 2947 2950 2953 2956 2957 2958 2959 2961 2964 2967 2969 2973 2978 2983 2987 2990 2994 2996 2998 3000 3001 3001 3002 3001 3001 3002 3003 3004 3005 3006 3006 3007 3007 3007 3008 3008 3009 3009 3009 3009 3008 3007 3005
2893 2900 2906 2912 2917 2923 2928 2933 2938 2942 2945 2948 2950 2952 2954 2955 2957 2959 2961 2964 2967 2969 2974 2979 2984 2988 2991 2994 2996 2997 2998 2998 2998 2999 2999 2999 3000 3001 3002 3003 3004 3004 3005 3005 3005 3006 3006 3007 3007 3008 3007 3006 3005 3004
2897 2903 2908 2914 2919 2925 2931 2936 2940 2944 2947 2950 2952 2953 2954 2957 2959 2961 2964 2966 2968 2971 2976 2981 2984 2988 2990 2992 2993 2994 2995 2995 2997 2997 2999 2999 3000 3000 3000 3001 3001 3002 3002 3002 3003 3003 3004 3005 3005 3006 3005 3004 3003 3002
2900 2904 2910 2916 2921 2927 2933 2939 2943 2946 2949 2951 2953 2955 2957 2959 2961 2963 2966 2968 2970 2973 2978 2981 2984 2986 2988 2990 2991 2991 2992 2994 2995 2997 2997 2997 2998 2998 2998 2998 2999 2999 2999 2999 3000 3001 3002 3003 3003 3003 3002 3001 3001 2999
2903 2908 2914 2919 2924 2930 2935 2940 2945 2947 2950 2953 2955 2957 2959 2962 2963 2965 2967 2969 2972 2974 2977 2980 2982 2983 2985 2987 2988 2989 2990 2991 2993 2994 2995 2995 2994 2994 2995 2995 2995 2995 2995 2996 2997 2998 2999 2999 2999 2999 2998 2998 2997 2996
2907 2912 2918 2923 2929 2933 2937 2942 2946 2949 2952 2955 2957 2959 2961 2962 2964 2965 2966 2968 2971 2974 2976 2978 2980 2981 2983 2986 2987 2988 2989 2989 2990 2991 2992 2992 2992 2992 2991 2992 2992 2992 2992 2993 2994 2994 2995 2995 2995 2995 2994 2994 2993 2993
2911 2916 2921 2927 2931 2936 2939 2943 2947 2950 2953 2956 2957 2959 2960 2962 2964 2965 2966 2967 2969 2971 2973 2974 2977 2980 2981 2983 2984 2985 2986 2987 2987 2987 2988 2988 2988 2988 2988 2988 2988 2988 2988 2989 2990 2991 2991 2991 2991 2990 2990 2990 2989 2989
2915 2919 2924 2929 2933 2937 2941 2944 2948 2951 2953 2955 2956 2957 2958 2960 2962 2964 2965 2966 2968 2968 2970 2972 2974 2975 2977 2979 2981 2982 2983 2983 2983 2983 2984 2984 2984 2984 2983 2983 2983 2983 2984 2985 2986 2986 2986 2987 2986 2986 2985 2985 2984 2983
2920 2924 2928 2931 2935 2940 2943 2946 2949 2951 2954 2954 2955 2955 2956 2957 2959 2961 2963 2964 2964 2965 2966 2967 2968 2970 2972 2974 2975 2976 2978 2979 2979 2980 2980 2980 2980 2979 2978 2977 2977 2978 2979 2980 2980 2981 2981 2981 2981 2980 2979 2978 2977 2975
2924 2928 2932 2935 2939 2941 2945 2947 2949 2951 2952 2952 2953 2952 2952 2953 2955 2959 2960 2960 2961 2961 2962 2963 2964 2965 2966 2968 2969 2970 2971 2973 2973 2973 2974 2974 2974 2974 2973 2972 2972 2973 2973 2974 2975 2975 2975 2975 2974 2973 2972 2970 2969 2967
2928 2931 2934 2937 2939 2942 2944 2946 2947 2949 2949 2950 2950 2950 2950 2950 2952 2954 2955 2955 2956 2957 2957 2958 2959 2960 2961 2962 2963 2964 2965 2966 2967 2967 2967 2967 2967 2967 2967 2966 2966 2967 2967 2968 2968 2968 2968 2968 2967 2966 2965 2964 2963 2961
2933 2935 2937 2937 2939 2942 2943 2944 2945 2946 2946 2946 2947 2947 2947 2948 2949 2950 2950 2950 2951 2951 2952 2953 2954 2955 2956 2957 2958 2958 2959 2960 2960 2960 2961 2961 2961 2961 2961 2960 2960 2960 2960 2961 2961 2961 2961 2960 2959 2958 2957 2956 2955 2953
2932 2934 2935 2936 2938 2940 2941 2942 2942 2942 2943 2944 2944 2945 2945 2946 2946 2945 2945 2945 2945 2946 2947 2947 2948 2949 2950 2951 2952 2952 2953 2953 2954 2954 2954 2954 2954 2955 2955 2955 2954 2954 2954 2954 2953 2953 2952 2952 2951 2950 2949 2947 2945 2944
2932 2933 2934 2936 2938 2939 2940 2940 2940 2940 2941 2940 2941 2941 2942 2943 2942 2941 2941 2941 2942 2942 2943 2943 2944 2944 2945 2945 2945 2946 2946 2947 2947 2947 2947 2947 2947 2947 2947 2947 2946 2946 2945 2945 2945 2944 2944 2943 2942 2941 2940 2938 2937 2935
2932 2933 2935 2937 2937 2937 2938 2938 2938 2938 2938 2938 2939 2938 2938 2938 2939 2939 2939 2939 2939 2940 2940 2940 2940 2940 2940 2940 2939 2939 2939 2939 2939 2939 2939 2939 2939 2939 2938 2938 2938 2938 2938 2937 2937 2936 2935 2934 2933 2932 2931 2929 2928 2926
2931 2933 2934 2935 2935 2935 2936 2936 2936 2936 2936 2936 2936 2936 2936 2936 2936 2936 2937 2936 2936 2936 2936 2936 2936 2936 2935 2935 2934 2933 2933 2932 2932 2931 2931 2931 2931 2932 2931 2931 2930 2930 2930 2929 2928 2927 2926 2925 2924 2923 2922 2920 2919 2917
2930 2931 2931 2931 2932 2932 2932 2932 2932 2933 2932 2933 2933 2933 2932 2932 2932 2932 2932 2932 2932 2932 2931 2931 2930 2930 2929 2929 2928 2928 2927 2926 2925 2925 2924 2924 2924 2924 2923 2923 2922 2921 2921 2920 2919 2918 2917 2916 2915 2914 2913 2911 2910 2909
2925 2926 2926 2926 2926 2927 2927 2926 2926 2926 2926 2926 2926 2926 2926 2926 2926 2926 2926 2926 2926 2926 2925 2925 2924 2924 2923 2923 2923 2922 2921 2921 2920 2919 2918 2918 2917 2917 2916 2915 2914 2913 2912 2911 2910 2909 2908 2907 2906 2905 2904 2903 2902 2901
2919 2919 2920 2919 2920 2920 2920 2919 2918 2918 2918 2917 2917 2918 2918 2919 2919 2919 2920 2919 2919 2919 2919 2918 2918 2918 2918 2917 2917 2916 2915 2915 2914 2913 2912 2912 2911 2910 2909 2908 2906 2905 2904 2903 2902 2901 2900 2899 2898 2897 2896 2896 2895 2893
2914 2914 2913 2913 2913 2913 2913 2913 2913 2912 2911 2910 2910 2911 2911 2912 2912 2914 2913 2913 2914 2913 2913 2913 2912 2912 2912 2911 2911 2911 2910 2909 2908 2907 2906 2905 2904 2903 2901 2900 2898 2897 2896 2894 2893 2893 2892 2892 2891 2890 2889 2888 2887 2886